Regional Weather Roundup
Issued by NWS

Home | Current Version | Previous Version | Text Only | Print | Product List | Glossary On
Versions: 1 2 3 4 5 6 7 8 9 10 11 12 13 14 15 16 17 18 19 20 21 22 23 24 25 26 27 28 29 30 31 32 33 34 35 36 37 38 39 40 41 42 43 44 45 46 47 48 49 50
000
ASHW40 PHFO 191643
RWRHI

WEATHER ROUNDUP FOR HAWAII
NATIONAL WEATHER SERVICE HONOLULU HI
600 AM HST FRI SEP 19 2014

THIS IS AN AUTOMATED REPORT THAT HAS NOT BEEN QUALITY CONTROLLED.

NOTE..."FAIR" INDICATES FEW OR NO CLOUDS BELOW 12,000 FEET WITH NO
SIGNIFICANT WEATHER AND/OR OBSTRUCTIONS TO VISIBILITY.

* - THESE SITES REPORT LIMITED FIELDS

HIZ001>004-191700-
KAUAI-NIIHAU-

CITY           SKY/WX    TMP DP  RH WIND       PRES   REMARKS
LIHUE APT      CLEAR     73  69  87 W7        29.93R
PORT ALLEN*      N/A     72 N/A N/A NE3         N/A
POIPU*           N/A     72 N/A N/A N3          N/A
PRINCEVILLE*   NOT AVBL
KOKOLE POINT*    N/A     73 N/A N/A MISG        N/A
MOLOAA DAIRY*  NOT AVBL
WAIMEA HTS*      N/A     73  66  78 N1          N/A
PUU OPAE*        N/A     70  64  83 CALM        N/A
PUU LUA*       NOT AVBL
MAKAHA RIDGE*  NOT AVBL
$$

HIZ005>011-191700-
OAHU-

CITY           SKY/WX    TMP DP  RH WIND       PRES   REMARKS
HONOLULU       PTCLDY    75  69  81 N3        29.92R
KALAELOA       CLEAR     69  69 100 CALM      29.94R
KANEOHE MCB    PTCLDY    77  72  84 CALM      29.93R
WHEELER FIELD  FAIR      69  66  89 N2        29.94S
BELLOWS*         N/A    N/A N/A N/A SW5         N/A
KAHUKU*          N/A    N/A N/A N/A NE1         N/A
WHEELER*       NOT AVBL
WAIANAE HARBOR NOT AVBL
DILLINGHAM*      N/A     68  66  94 CALM        N/A
KAHUKU TRN*      N/A     72  70  94 SE2         N/A
KAWAILOA*      NOT AVBL
KII*             N/A     72  70  94 SE2         N/A
MAKUA RANGE*     N/A     72  68  88 E5G10       N/A
OAHU FOREST NW   N/A     68  66  94 NE5         N/A
SCHOFIELD BRK*   N/A     66  64  94 MISG        N/A
SCHOFIELD S*   NOT AVBL
WAIANAE VLY*     N/A     66  64  94 N6          N/A
KUAOKALA*        N/A     73  66  78 CALM        N/A
HONOULIUULI*   NOT AVBL
MOKUOLOE IS*     N/A    N/A N/A N/A MISG        N/A
PALEHUA*         N/A     81  70  69 CALM        N/A
WAIAWA PHB*    NOT AVBL
$$

HIZ012>013-191700-
MOLOKAI-

CITY           SKY/WX    TMP DP  RH WIND       PRES   REMARKS
MOLOKAI AIRPT  CLEAR     68  68 100 CALM      29.95R
KALAUPAPA      NOT AVBL
MAKAPULAPAI*     N/A     73  66  78 S2          N/A
MOLOKAI 1*       N/A     61  61 100 NE2         N/A
PUU ALII*        N/A     58  57  97 SE1         N/A
$$

HIZ016-191700-
KAHOOLAWE-

CITY           SKY/WX    TMP DP  RH WIND       PRES   REMARKS
KAHOOLAWE*       N/A     72 N/A N/A E12         N/A
HAKIOAWA*      NOT AVBL
HONOKANAIA*      N/A     77  68  73 N6G13     29.94R
KANELOA*         N/A     73  66  78 NE9G16    29.16R
KEALIALALO*    NOT AVBL
LUA MAKIKA*    NOT AVBL
$$

HIZ014>015-191700-
LANAI-

CITY           SKY/WX    TMP DP  RH WIND       PRES   REMARKS
LANAI CITY     FAIR      68  68 100 E3        29.99S
LANAI 1*         N/A     70  70 100 E3          N/A
$$

HIZ017>028-191700-
MAUI-

CITY           SKY/WX    TMP DP  RH WIND       PRES   REMARKS
KAHULUI        PTCLDY    69  65  86 SE7       29.93R
KAPALUA-W MAUI PTCLDY    73  68  83 CALM      29.94
HANA AIRPORT   CLEAR     73  68  83 CALM      29.95S
HANA*            N/A     73 N/A N/A SE3         N/A
HALEAKALA SUMM   N/A     50  14  23 NE13        N/A
MAALAEA BAY*   NOT AVBL
HALEAKALA*     NOT AVBL
KAUPO GAP*     NOT AVBL
KULA 1*          N/A    N/A N/A N/A CALM        N/A
$$

HIZ023>026-191700-
BIG ISLAND OF HAWAII COAST AND LOWER SLOPES-

CITY           SKY/WX    TMP DP  RH WIND       PRES   REMARKS
KAILUA KONA    CLEAR     76  67  73 NE5       29.91R
HILO           PTCLDY    71  66  84 SW6       29.93R
HONOKAA*       NOT AVBL
KAWAIHAE MWT*    N/A     79 N/A N/A NE5         N/A
KAWAIHAE*        N/A     79 N/A N/A NE3         N/A
SOUTH POINT*     N/A     70 N/A N/A N8          N/A
UPOLU AIRPORT*   N/A    N/A N/A N/A E7          N/A
KAMUELA*       SUNNY     59  57  94 CALM      30.06R
HAKALAU*         N/A     46  45  93 W3          N/A
KALOKO-HONOKO*   N/A     73  66  78 NE6         N/A
PALI 2*          N/A     64  61  88 N8          N/A
KEALAKOMO*       N/A     75  68  78 NE5         N/A
KAUPULEHU*       N/A     72  61  68 SE7         N/A
KAPAPALA*        N/A     63  62  95 N1          N/A
LOWER KAHUKU*  NOT AVBL
PUHE CS*       NOT AVBL
PUHO CS*         N/A     73  64  72 E3          N/A
PTA KEAMUKU*     N/A     59  55  88 S5G10       N/A
WAIKOLOA*        N/A     72  61  68 E7          N/A
$$

HIZ027>028-191700-
BIG ISLAND OF HAWAII INTERIOR AND SUMMMITS-

CITY           SKY/WX    TMP DP  RH WIND       PRES   REMARKS
BRADSHAW FIELD PTCLDY    52  43  72 SE5       30.29R
MK VISITOR CEN NOT AVBL
MAUNA KEA*       N/A     37  27  65 W5          N/A
MAUNA LOA*       N/A    N/A N/A N/A MISG        N/A
MAUNA LOA 1*     N/A    N/A N/A N/A MISG        N/A
PTA KIPUKA*      N/A     54  54 100 E3          N/A
PTA RANGE 17*    N/A     54  50  87 E6          N/A
PTA WEST*        N/A     61  59  94 SE7         N/A
NENE CABIN*    NOT AVBL
AHUMOA*          N/A     51  46  83 NE2         N/A
PTA PORTABLE*  NOT AVBL
PUU MALI*      NOT AVBL
$$

HIC003-191700-
NORTHWEST ISLANDS-

CITY           SKY/WX    TMP DP  RH WIND       PRES   REMARKS
MIDWAY ISLAND  CLEAR     79  72  78 NE6       30.08R
MIDWAY NOS*    NOT AVBL
FRENCH FRIGATE NOT AVBL
$$

PHZ110>124-180-191700-
BUOY REPORTS

STATION/POSITION TIME  TEMP    WIND        PRES    WAVE   SWELL
                       AIR SEA DIR/SP/G            HT/PER HT/DIR
                 (UTC) (F)     (DEG/KT/KT) (MB)    (FT/S) (FT/D)
BUOY 51001       NOT AVBL
BUOY 51101       NOT AVBL
BUOY 51100       1500   79 81  120/  6/  8 1013.7R
BUOY 51003       1600   81 83   90/  6/  6 1013.1R   4/11   5
BUOY 51004       1518   80 81   70/ 10/ 12 1012.5R   6/11   5/ 90
BARBERS PT BUOY  NOT AVBL
WAIMEA BAY BUOY  1600      82                N/A     4/ 8   2
KAILUA BAY BUOY  1600      83                N/A     5/10   2/ 50
LANAI BUOY       NOT AVBL
BARBERS PT 2     1600      83                N/A     3/13   2/180
PAUWELA MAUI     1600      81                N/A     4/10   2/ 50
HILO             1600      82                N/A     6/11   3/ 70
KANEOHE BAY BUOY NOT AVBL
HANALEI KAUAI    NOT AVBL
KAHULUI HARBOR   1600   72 84  150/  3/  5 1013.4R
HONOLULU HARBOR  1600   77      80/  1/  2 1013.6R
KILO NALU        NOT AVBL
HILO HARBOR      1600   72     200/  6/  7 1012.9R
MOKUOLOE         1600      84              1013.6R
NAWILIWILI       1600      85                N/A
WHOTS BUOY       NOT AVBL
BUOY 51028       NOT AVBL
$$

......................KEY........................................
  SKY/WX - SKY CONDITIONS/PRESENT WEATHER
  TMP    - TEMPERATURE IN FAHRENHEIT
  DWPT   - DEWPOINT IN FAHRENHEIT
  RH     - RELATIVE HUMIDITY IN PERCENT
  WIND   - DIRECTION AND SPEED /MPH FOR ISLANDS...KTS FOR BUOYS/
  PRES   - MEAN SEA LEVEL PRESSURE IN INCHES OF HG
  VSB    - VISIBILITY IN MILES
  HX     - HEAT INDEX
  WCI    - WIND CHILL INDEX
  VRB    - VARIABLE WIND DIRECTION
  N/A    - NOT AVAILABLE



USA.gov is the U.S. government's official web portal to all federal, state and local government web resources and services.